Weather History for Mercury, NV

Change the Weather History Date:

Wednesday, January 9, 2013

  Actual Average Record
Temperature  
Mean Temperature 47 °F -  
Max Temperature 57 °F 53 °F 64 °F (2015)
Min Temperature 37 °F 32 °F 27 °F (2000)
Degree Days  
Heating Degree Days 18    
Moisture  
Dew Point 26 °F    
Average Humidity 40    
Maximum Humidity 65    
Minimum Humidity 18    
Precipitation  
Precipitation 0.00 in - - ()
Sea Level Pressure  
Sea Level Pressure 30.02 in    
Wind  
Wind Speed 9 mph (SE)    
Max Wind Speed 25 mph    
Max Gust Speed 34 mph    
Visibility 10 miles    
Events      
Averages and records for this station are not official NWS values.
T = Trace of Precipitation, MM = Missing Value Source: NWS Daily Summary

Daily Weather History Graph

Daily Weather History Graph

Search for Another Location

Airport:

Trip Planner

Search our weather history database for the weather conditions in past years. The results will help you decide how hot, cold, wet, or windy it might be!

Date:

Astronomy

Jan. 09, 2013 Rise Set
Actual Time 6:56 AM PST 4:46 PM PST
Civil Twilight 6:28 AM PST 5:14 PM PST
Nautical Twilight 5:56 AM PST 5:46 PM PST
Astronomical Twilight 5:25 AM PST 6:18 PM PST
Moon 4:40 AM PST (1/9) 2:52 PM PST (1/9)
Length of Visible Light 10h 46m
Length of Day
9h 49m
Waning Crescent, 6% of the Moon is Illuminated
Jan 9
Waning Crescent
Jan 11
New
Jan 18
First Quarter
Jan 26
Full
Feb 3
Last Quarter

Hourly Weather History & Observations

Time (PST) Temp. Windchill Dew Point Humidity Pressure Visibility Wind Dir Wind Speed Gust Speed Precip Events Conditions
12:52 AM 45.0 °F 40.1 °F 28.0 °F 52% 30.20 in 10.0 mi NE 9.2 mph - N/A   Clear
1:52 AM 44.1 °F 40.8 °F 28.0 °F 53% 30.20 in 10.0 mi ENE 5.8 mph - N/A   Clear
2:52 AM 39.9 °F 35.1 °F 27.0 °F 60% 30.20 in 10.0 mi East 6.9 mph - N/A   Clear
3:52 AM 39.9 °F 35.1 °F 27.0 °F 60% 30.17 in 10.0 mi ESE 6.9 mph - N/A   Clear
4:52 AM 39.0 °F - 27.0 °F 62% 30.17 in 10.0 mi Calm Calm - N/A   Clear
6:52 AM 37.9 °F 34.4 °F 27.0 °F 65% 30.19 in 10.0 mi ENE 4.6 mph - N/A   Clear
7:52 AM 42.1 °F - 27.0 °F 55% 30.19 in 10.0 mi Calm Calm - N/A   Clear
8:52 AM 45.0 °F 43.5 °F 28.0 °F 52% 30.17 in 10.0 mi Variable 3.5 mph - N/A   Clear
9:52 AM 50.0 °F - 28.0 °F 43% 30.16 in 10.0 mi ESE 16.1 mph - N/A   Clear
10:52 AM 52.0 °F - 28.0 °F 40% 30.12 in 10.0 mi ESE 10.4 mph - N/A   Clear
11:52 AM 55.0 °F - 27.0 °F 34% 30.06 in 10.0 mi ESE 13.8 mph - N/A   Clear
12:52 PM 57.0 °F - 27.0 °F 32% 30.03 in 10.0 mi SE 10.4 mph - N/A   Clear
1:52 PM 57.9 °F - 27.0 °F 31% 30.00 in 10.0 mi ESE 6.9 mph - N/A   Clear
2:52 PM 57.9 °F - 26.1 °F 30% 30.00 in 10.0 mi South 4.6 mph - N/A   Clear
3:52 PM 55.9 °F - 25.0 °F 30% 29.97 in 10.0 mi SE 8.1 mph - N/A   Clear
4:52 PM 53.1 °F - 25.0 °F 34% 29.94 in 10.0 mi ESE 10.4 mph - N/A   Clear
5:52 PM 51.1 °F - 24.1 °F 35% 29.92 in 10.0 mi SE 5.8 mph - N/A   Clear
6:52 PM 46.0 °F 43.1 °F 25.0 °F 44% 29.91 in 10.0 mi NNE 5.8 mph - N/A   Clear
7:52 PM 46.0 °F 42.5 °F 25.0 °F 44% 29.89 in 10.0 mi NW 6.9 mph - N/A   Clear
8:52 PM 44.1 °F 42.5 °F 25.0 °F 47% 29.86 in 10.0 mi Variable 3.5 mph - N/A   Clear
9:52 PM 55.0 °F - 25.0 °F 31% 29.81 in 10.0 mi SSW 18.4 mph 25.3 mph N/A   Clear
10:07 PM 57.2 °F - 24.8 °F 29% 29.86 in 10.0 mi South 25.3 mph 32.2 mph N/A   Clear
10:52 PM 57.9 °F - 24.1 °F 27% 29.77 in 10.0 mi SSW 24.2 mph 31.1 mph N/A   Clear
11:52 PM 57.0 °F - 25.0 °F 29% 29.73 in 10.0 mi SSW 21.9 mph 34.5 mph N/A   Clear